QPF
0.03 0.03 0.03 0.04 0.04 0.04 0.04 0.05 0.05 0.04 0.03 0.02 0.02 0.01 0.01 0.01 0.00 0.00 0.00 0.00 0.00 0.00 0.00 0.00 0.00 0.00 0.00 0.00 0.00 0.00 0.00 0.01 0.01 0.00 0.00 0.00 0.00 0.01 0.01 0.01 0.02 0.02 0.02 0.03
0.03 0.03 0.02 0.02 0.03 0.03 0.04 0.04 0.04 0.03 0.03 0.03 0.02 0.01 0.01 0.01 0.01 0.01 0.01 0.01 0.01 0.01 0.00 0.00 0.00 0.00 0.00 0.00 0.00 0.00 0.00 0.01 0.01 0.01 0.00 0.00 0.00 0.01 0.01 0.01 0.01 0.02 0.02 0.03
0.03 0.03 0.03 0.04 0.04 0.04 0.04 0.04 0.03 0.04 0.04 0.03 0.02 0.01 0.01 0.01 0.01 0.01 0.01 0.01 0.01 0.01 0.01 0.00 0.00 0.00 0.00 0.00 0.00 0.00 0.01 0.01 0.01 0.01 0.01 0.01 0.01 0.01 0.01 0.01 0.02 0.02 0.03 0.03
0.03 0.02 0.04 0.05 0.04 0.03 0.03 0.03 0.03 0.03 0.03 0.03 0.02 0.02 0.02 0.02 0.01 0.01 0.01 0.01 0.01 0.01 0.01 0.01 0.01 0.00 0.00 0.00 0.00 0.01 0.01 0.01 0.01 0.01 0.01 0.01 0.01 0.02 0.02 0.02 0.02 0.02 0.02 0.03
0.03 0.03 0.04 0.03 0.02 0.04 0.04 0.03 0.03 0.03 0.02 0.02 0.02 0.01 0.02 0.01 0.01 0.01 0.01 0.01 0.02 0.01 0.01 0.01 0.01 0.01 0.01 0.01 0.01 0.01 0.01 0.01 0.01 0.01 0.01 0.01 0.01 0.02 0.03 0.02 0.02 0.02 0.02 0.02
0.02 0.04 0.04 0.04 0.02 0.02 0.03 0.04 0.03 0.02 0.02 0.02 0.02 0.02 0.02 0.01 0.01 0.01 0.01 0.01 0.02 0.02 0.01 0.01 0.01 0.01 0.01 0.01 0.01 0.01 0.01 0.01 0.01 0.01 0.01 0.01 0.01 0.01 0.02 0.02 0.02 0.02 0.02 0.02
0.02 0.03 0.04 0.03 0.02 0.02 0.04 0.04 0.02 0.02 0.03 0.03 0.03 0.03 0.02 0.01 0.01 0.01 0.02 0.02 0.02 0.02 0.02 0.02 0.01 0.02 0.02 0.02 0.02 0.02 0.01 0.01 0.01 0.01 0.01 0.01 0.01 0.01 0.01 0.02 0.02 0.02 0.02 0.01
0.03 0.04 0.05 0.03 0.03 0.04 0.05 0.02 0.02 0.02 0.03 0.03 0.03 0.02 0.02 0.02 0.02 0.02 0.02 0.02 0.02 0.03 0.03 0.02 0.02 0.02 0.02 0.02 0.03 0.02 0.02 0.02 0.02 0.01 0.01 0.01 0.01 0.01 0.01 0.01 0.01 0.01 0.01 0.01
0.03 0.05 0.06 0.05 0.05 0.05 0.04 0.03 0.03 0.03 0.03 0.03 0.03 0.03 0.02 0.02 0.02 0.02 0.02 0.02 0.02 0.03 0.03 0.02 0.02 0.02 0.02 0.02 0.03 0.03 0.03 0.03 0.02 0.02 0.02 0.01 0.01 0.01 0.01 0.01 0.01 0.01 0.01 0.01
0.03 0.04 0.04 0.04 0.04 0.04 0.04 0.05 0.04 0.04 0.03 0.03 0.03 0.03 0.03 0.03 0.03 0.03 0.02 0.03 0.03 0.03 0.03 0.02 0.02 0.02 0.02 0.03 0.03 0.03 0.03 0.03 0.03 0.02 0.02 0.02 0.02 0.02 0.01 0.01 0.01 0.01 0.01 0.01
0.03 0.03 0.03 0.03 0.04 0.05 0.05 0.04 0.04 0.04 0.03 0.03 0.03 0.03 0.04 0.04 0.04 0.03 0.03 0.03 0.03 0.03 0.03 0.03 0.03 0.03 0.03 0.03 0.03 0.03 0.02 0.02 0.03 0.03 0.03 0.03 0.02 0.02 0.02 0.02 0.02 0.01 0.01 0.01
0.04 0.03 0.04 0.04 0.05 0.04 0.03 0.04 0.04 0.03 0.03 0.03 0.03 0.03 0.03 0.04 0.04 0.04 0.04 0.03 0.03 0.03 0.03 0.03 0.03 0.04 0.04 0.04 0.04 0.03 0.03 0.03 0.02 0.03 0.03 0.03 0.02 0.02 0.03 0.03 0.02 0.02 0.01 0.01
0.03 0.02 0.02 0.03 0.02 0.02 0.02 0.03 0.03 0.03 0.03 0.03 0.03 0.03 0.03 0.03 0.04 0.04 0.03 0.03 0.03 0.03 0.03 0.03 0.03 0.03 0.04 0.04 0.04 0.04 0.04 0.03 0.03 0.03 0.03 0.03 0.02 0.02 0.02 0.03 0.03 0.03 0.02 0.01
0.02 0.01 0.01 0.01 0.01 0.01 0.01 0.01 0.01 0.01 0.02 0.02 0.02 0.03 0.03 0.03 0.03 0.03 0.04 0.03 0.03 0.02 0.02 0.02 0.02 0.03 0.03 0.04 0.04 0.04 0.04 0.04 0.04 0.04 0.03 0.03 0.02 0.02 0.01 0.01 0.02 0.02 0.01 0.01
0.01 0.01 0.01 0.01 0.00 0.00 0.00 0.00 0.00 0.00 0.01 0.01 0.01 0.01 0.02 0.02 0.03 0.03 0.03 0.03 0.02 0.02 0.02 0.02 0.02 0.02 0.02 0.03 0.03 0.04 0.04 0.04 0.04 0.04 0.03 0.02 0.02 0.02 0.02 0.01 0.01 0.01 0.01 0.01
0.01 0.01 0.01 0.00 0.00 0.00 0.00 0.00 0.00 0.00 0.01 0.01 0.01 0.01 0.01 0.02 0.02 0.02 0.02 0.02 0.03 0.03 0.03 0.03 0.02 0.02 0.02 0.03 0.03 0.03 0.04 0.05 0.04 0.04 0.04 0.03 0.03 0.02 0.02 0.02 0.01 0.01 0.01 0.01
0.02 0.01 0.01 0.01 0.00 0.00 0.00 0.00 0.00 0.00 0.00 0.01 0.01 0.01 0.01 0.02 0.02 0.02 0.02 0.02 0.02 0.03 0.03 0.04 0.04 0.03 0.03 0.03 0.03 0.03 0.04 0.05 0.05 0.05 0.04 0.04 0.04 0.03 0.02 0.02 0.02 0.01 0.01 0.01
0.01 0.01 0.01 0.01 0.01 0.01 0.00 0.00 0.00 0.00 0.00 0.01 0.01 0.01 0.01 0.02 0.02 0.03 0.03 0.02 0.02 0.02 0.03 0.03 0.03 0.03 0.03 0.04 0.04 0.04 0.04 0.05 0.05 0.05 0.05 0.04 0.04 0.03 0.02 0.02 0.02 0.02 0.02 0.01
0.00 0.00 0.01 0.01 0.01 0.01 0.01 0.01 0.01 0.00 0.00 0.00 0.01 0.01 0.01 0.02 0.02 0.03 0.02 0.02 0.02 0.03 0.03 0.03 0.03 0.03 0.03 0.04 0.04 0.04 0.04 0.04 0.05 0.05 0.05 0.04 0.03 0.02 0.02 0.02 0.02 0.02 0.02 0.01
0.00 0.00 0.00 0.00 0.00 0.01 0.01 0.01 0.01 0.01 0.01 0.01 0.01 0.01 0.01 0.02 0.02 0.02 0.02 0.02 0.03 0.04 0.04 0.03 0.02 0.02 0.03 0.03 0.03 0.03 0.03 0.03 0.03 0.04 0.04 0.04 0.03 0.03 0.02 0.02 0.02 0.02 0.01 0.01
0.00 0.00 0.00 0.00 0.00 0.00 0.00 0.01 0.01 0.01 0.01 0.01 0.01 0.01 0.02 0.02 0.02 0.02 0.02 0.03 0.03 0.03 0.03 0.03 0.02 0.02 0.02 0.02 0.02 0.02 0.02 0.03 0.03 0.03 0.03 0.03 0.03 0.03 0.02 0.02 0.02 0.02 0.01 0.01
0.00 0.00 0.00 0.00 0.00 0.00 0.00 0.01 0.01 0.01 0.01 0.01 0.01 0.01 0.02 0.02 0.02 0.02 0.02 0.03 0.03 0.03 0.02 0.02 0.02 0.02 0.02 0.02 0.02 0.01 0.02 0.02 0.03 0.03 0.03 0.03 0.03 0.02 0.02 0.02 0.02 0.02 0.01 0.01
0.00 0.00 0.00 0.00 0.00 0.00 0.00 0.00 0.01 0.01 0.01 0.01 0.01 0.02 0.02 0.02 0.02 0.02 0.03 0.03 0.03 0.03 0.02 0.02 0.02 0.02 0.02 0.02 0.02 0.02 0.02 0.02 0.02 0.02 0.03 0.03 0.03 0.03 0.03 0.02 0.02 0.02 0.01 0.01
0.00 0.00 0.00 0.00 0.00 0.00 0.01 0.00 0.01 0.01 0.01 0.01 0.01 0.01 0.02 0.02 0.02 0.02 0.02 0.02 0.02 0.02 0.02 0.02 0.01 0.02 0.02 0.02 0.02 0.02 0.02 0.02 0.02 0.02 0.02 0.03 0.02 0.02 0.02 0.02 0.02 0.02 0.02 0.01
0.00 0.00 0.00 0.00 0.00 0.00 0.01 0.01 0.01 0.01 0.01 0.01 0.01 0.01 0.01 0.02 0.02 0.02 0.02 0.02 0.02 0.02 0.02 0.01 0.01 0.01 0.02 0.02 0.01 0.02 0.02 0.02 0.02 0.03 0.03 0.03 0.02 0.02 0.02 0.02 0.02 0.02 0.02 0.02
0.00 0.00 0.00 0.00 0.00 0.00 0.00 0.01 0.01 0.01 0.01 0.01 0.01 0.01 0.01 0.01 0.01 0.01 0.02 0.02 0.02 0.02 0.01 0.01 0.01 0.01 0.01 0.01 0.01 0.02 0.02 0.02 0.02 0.02 0.03 0.03 0.03 0.02 0.02 0.02 0.02 0.02 0.02 0.02
0.00 0.00 0.00 0.00 0.00 0.00 0.00 0.01 0.01 0.01 0.01 0.01 0.01 0.01 0.01 0.01 0.01 0.01 0.01 0.01 0.01 0.01 0.01 0.01 0.01 0.01 0.01 0.01 0.01 0.01 0.02 0.02 0.02 0.02 0.03 0.03 0.03 0.03 0.02 0.02 0.02 0.02 0.02 0.02
MSLP
1014.35 1013.87 1013.44 1013.07 1012.78 1012.57 1012.43 1012.35 1012.29 1012.24 1012.15 1012.01 1011.80 1011.52 1011.17 1010.76 1010.30 1009.81 1009.31 1008.79 1008.28 1007.78 1007.29 1006.82 1006.39 1006.00 1005.69 1005.46 1005.34 1005.33 1005.44 1005.66 1005.98 1006.37 1006.81 1007.28 1007.75 1008.22 1008.68 1009.15 1009.62 1010.13 1010.69 1011.31
1014.77 1014.44 1014.16 1013.93 1013.77 1013.67 1013.62 1013.60 1013.58 1013.54 1013.46 1013.30 1013.05 1012.72 1012.31 1011.82 1011.29 1010.73 1010.15 1009.57 1008.99 1008.43 1007.88 1007.37 1006.89 1006.46 1006.09 1005.81 1005.64 1005.58 1005.64 1005.83 1006.12 1006.50 1006.95 1007.44 1007.95 1008.46 1008.97 1009.48 1010.00 1010.53 1011.11 1011.74
1015.39 1015.17 1014.99 1014.86 1014.77 1014.73 1014.72 1014.72 1014.70 1014.65 1014.54 1014.35 1014.06 1013.68 1013.21 1012.67 1012.08 1011.47 1010.83 1010.20 1009.59 1008.99 1008.42 1007.88 1007.38 1006.92 1006.53 1006.22 1006.01 1005.91 1005.93 1006.07 1006.34 1006.70 1007.15 1007.65 1008.19 1008.74 1009.30 1009.86 1010.43 1011.01 1011.61 1012.25
1016.29 1016.14 1016.02 1015.92 1015.85 1015.81 1015.78 1015.75 1015.70 1015.60 1015.44 1015.19 1014.85 1014.41 1013.90 1013.31 1012.68 1012.02 1011.35 1010.70 1010.06 1009.46 1008.89 1008.35 1007.85 1007.40 1007.00 1006.68 1006.45 1006.32 1006.31 1006.42 1006.65 1006.99 1007.42 1007.93 1008.48 1009.07 1009.68 1010.29 1010.91 1011.53 1012.18 1012.84
1017.52 1017.39 1017.27 1017.15 1017.04 1016.94 1016.84 1016.74 1016.61 1016.43 1016.18 1015.86 1015.45 1014.95 1014.38 1013.74 1013.06 1012.37 1011.68 1011.01 1010.38 1009.79 1009.23 1008.73 1008.26 1007.84 1007.47 1007.17 1006.94 1006.80 1006.77 1006.86 1007.06 1007.37 1007.79 1008.29 1008.86 1009.47 1010.11 1010.77 1011.43 1012.10 1012.78 1013.47
1019.02 1018.87 1018.70 1018.52 1018.32 1018.13 1017.92 1017.70 1017.45 1017.15 1016.80 1016.38 1015.87 1015.30 1014.65 1013.95 1013.23 1012.50 1011.79 1011.12 1010.50 1009.93 1009.42 1008.96 1008.55 1008.19 1007.88 1007.62 1007.43 1007.31 1007.29 1007.37 1007.55 1007.85 1008.25 1008.75 1009.32 1009.95 1010.61 1011.30 1012.00 1012.71 1013.41 1014.13
1020.66 1020.46 1020.22 1019.95 1019.64 1019.31 1018.97 1018.60 1018.21 1017.77 1017.28 1016.74 1016.12 1015.44 1014.71 1013.94 1013.15 1012.38 1011.65 1010.97 1010.37 1009.84 1009.38 1008.99 1008.67 1008.39 1008.16 1007.98 1007.85 1007.79 1007.80 1007.90 1008.09 1008.39 1008.79 1009.29 1009.86 1010.50 1011.18 1011.89 1012.61 1013.34 1014.06 1014.79
1022.26 1022.02 1021.70 1021.32 1020.89 1020.43 1019.93 1019.41 1018.85 1018.26 1017.62 1016.93 1016.18 1015.38 1014.53 1013.67 1012.82 1011.99 1011.23 1010.55 1009.96 1009.47 1009.08 1008.78 1008.55 1008.38 1008.26 1008.19 1008.15 1008.17 1008.24 1008.39 1008.62 1008.94 1009.36 1009.87 1010.46 1011.11 1011.80 1012.52 1013.26 1013.99 1014.73 1015.46
1023.68 1023.39 1022.99 1022.52 1021.97 1021.38 1020.73 1020.06 1019.34 1018.59 1017.79 1016.95 1016.05 1015.11 1014.15 1013.19 1012.24 1011.36 1010.55 1009.86 1009.29 1008.85 1008.53 1008.32 1008.20 1008.15 1008.15 1008.20 1008.28 1008.41 1008.57 1008.80 1009.09 1009.47 1009.92 1010.46 1011.07 1011.74 1012.45 1013.19 1013.93 1014.67 1015.40 1016.13
1024.77 1024.44 1024.00 1023.44 1022.80 1022.10 1021.33 1020.52 1019.66 1018.76 1017.81 1016.82 1015.78 1014.70 1013.62 1012.54 1011.51 1010.55 1009.71 1009.00 1008.44 1008.03 1007.78 1007.66 1007.64 1007.71 1007.85 1008.03 1008.24 1008.48 1008.76 1009.09 1009.47 1009.91 1010.43 1011.03 1011.68 1012.39 1013.12 1013.88 1014.63 1015.38 1016.10 1016.82
1025.48 1025.14 1024.65 1024.05 1023.35 1022.56 1021.71 1020.79 1019.83 1018.80 1017.73 1016.61 1015.44 1014.24 1013.04 1011.86 1010.74 1009.72 1008.83 1008.10 1007.54 1007.17 1006.96 1006.91 1006.99 1007.17 1007.42 1007.72 1008.06 1008.43 1008.83 1009.26 1009.75 1010.29 1010.89 1011.55 1012.27 1013.02 1013.80 1014.58 1015.36 1016.11 1016.83 1017.53
1025.83 1025.48 1024.99 1024.37 1023.63 1022.81 1021.90 1020.92 1019.88 1018.78 1017.62 1016.41 1015.14 1013.85 1012.56 1011.30 1010.11 1009.03 1008.10 1007.34 1006.78 1006.42 1006.25 1006.25 1006.40 1006.66 1007.00 1007.41 1007.85 1008.33 1008.84 1009.38 1009.97 1010.61 1011.30 1012.04 1012.83 1013.65 1014.48 1015.30 1016.10 1016.87 1017.59 1018.29
1025.92 1025.58 1025.09 1024.47 1023.74 1022.91 1021.99 1021.00 1019.93 1018.80 1017.59 1016.33 1015.02 1013.67 1012.33 1011.02 1009.78 1008.66 1007.70 1006.91 1006.35 1005.98 1005.82 1005.85 1006.03 1006.34 1006.74 1007.21 1007.74 1008.30 1008.89 1009.53 1010.21 1010.94 1011.72 1012.54 1013.41 1014.29 1015.18 1016.04 1016.87 1017.66 1018.39 1019.08
1025.88 1025.55 1025.07 1024.48 1023.77 1022.96 1022.07 1021.10 1020.06 1018.94 1017.74 1016.48 1015.16 1013.81 1012.46 1011.13 1009.88 1008.74 1007.75 1006.96 1006.37 1005.99 1005.82 1005.84 1006.03 1006.34 1006.77 1007.27 1007.83 1008.44 1009.10 1009.80 1010.55 1011.35 1012.20 1013.09 1014.02 1014.97 1015.90 1016.81 1017.67 1018.48 1019.23 1019.91
1025.84 1025.52 1025.07 1024.50 1023.83 1023.07 1022.24 1021.32 1020.34 1019.27 1018.13 1016.92 1015.65 1014.34 1013.01 1011.71 1010.47 1009.34 1008.35 1007.54 1006.93 1006.53 1006.33 1006.32 1006.48 1006.77 1007.18 1007.68 1008.24 1008.87 1009.55 1010.28 1011.07 1011.91 1012.80 1013.75 1014.72 1015.71 1016.68 1017.62 1018.51 1019.33 1020.08 1020.77
1025.91 1025.59 1025.16 1024.63 1024.01 1023.31 1022.55 1021.71 1020.81 1019.84 1018.79 1017.67 1016.48 1015.24 1013.98 1012.74 1011.55 1010.44 1009.47 1008.66 1008.03 1007.60 1007.36 1007.31 1007.41 1007.66 1008.02 1008.48 1009.02 1009.62 1010.29 1011.02 1011.81 1012.67 1013.58 1014.54 1015.53 1016.53 1017.51 1018.47 1019.36 1020.19 1020.95 1021.63
1026.14 1025.82 1025.40 1024.91 1024.34 1023.71 1023.02 1022.28 1021.48 1020.62 1019.68 1018.68 1017.60 1016.47 1015.31 1014.15 1013.03 1011.97 1011.03 1010.23 1009.59 1009.14 1008.85 1008.74 1008.79 1008.97 1009.27 1009.67 1010.15 1010.71 1011.34 1012.04 1012.81 1013.64 1014.53 1015.48 1016.45 1017.44 1018.41 1019.35 1020.24 1021.06 1021.80 1022.47
1026.53 1026.21 1025.81 1025.34 1024.82 1024.26 1023.66 1023.01 1022.32 1021.57 1020.76 1019.88 1018.93 1017.93 1016.88 1015.83 1014.79 1013.81 1012.91 1012.13 1011.49 1011.01 1010.69 1010.53 1010.51 1010.62 1010.84 1011.18 1011.59 1012.09 1012.66 1013.31 1014.02 1014.81 1015.66 1016.55 1017.48 1018.43 1019.36 1020.26 1021.12 1021.91 1022.63 1023.28
1027.04 1026.72 1026.34 1025.91 1025.44 1024.94 1024.41 1023.85 1023.26 1022.63 1021.94 1021.19 1020.37 1019.50 1018.58 1017.63 1016.70 1015.79 1014.95 1014.20 1013.58 1013.08 1012.73 1012.52 1012.45 1012.49 1012.65 1012.91 1013.26 1013.68 1014.19 1014.77 1015.42 1016.13 1016.91 1017.74 1018.60 1019.47 1020.35 1021.19 1022.00 1022.75 1023.43 1024.05
1027.62 1027.32 1026.96 1026.56 1026.13 1025.69 1025.23 1024.75 1024.25 1023.72 1023.15 1022.51 1021.82 1021.07 1020.27 1019.44 1018.60 1017.78 1017.01 1016.31 1015.70 1015.21 1014.84 1014.60 1014.48 1014.47 1014.56 1014.76 1015.04 1015.40 1015.83 1016.34 1016.91 1017.55 1018.24 1018.99 1019.76 1020.55 1021.35 1022.12 1022.86 1023.55 1024.19 1024.77
1028.22 1027.95 1027.62 1027.26 1026.87 1026.47 1026.07 1025.66 1025.24 1024.79 1024.31 1023.79 1023.21 1022.57 1021.89 1021.16 1020.43 1019.69 1018.99 1018.33 1017.76 1017.28 1016.91 1016.64 1016.49 1016.44 1016.48 1016.62 1016.84 1017.14 1017.51 1017.94 1018.44 1019.00 1019.61 1020.26 1020.95 1021.65 1022.35 1023.05 1023.71 1024.34 1024.92 1025.45
1028.82 1028.58 1028.28 1027.96 1027.61 1027.26 1026.90 1026.55 1026.19 1025.81 1025.41 1024.97 1024.48 1023.95 1023.36 1022.74 1022.10 1021.44 1020.81 1020.22 1019.68 1019.23 1018.86 1018.58 1018.41 1018.33 1018.34 1018.43 1018.60 1018.85 1019.16 1019.53 1019.96 1020.44 1020.97 1021.53 1022.12 1022.73 1023.35 1023.95 1024.54 1025.09 1025.60 1026.07
1029.39 1029.19 1028.94 1028.65 1028.34 1028.02 1027.71 1027.39 1027.08 1026.75 1026.41 1026.04 1025.63 1025.18 1024.68 1024.15 1023.59 1023.02 1022.45 1021.91 1021.42 1020.99 1020.64 1020.37 1020.18 1020.08 1020.07 1020.13 1020.27 1020.47 1020.73 1021.05 1021.42 1021.83 1022.28 1022.77 1023.27 1023.79 1024.32 1024.83 1025.33 1025.80 1026.24 1026.65
1029.94 1029.78 1029.57 1029.31 1029.04 1028.75 1028.47 1028.18 1027.90 1027.61 1027.32 1027.00 1026.65 1026.26 1025.84 1025.38 1024.89 1024.39 1023.89 1023.41 1022.96 1022.56 1022.23 1021.97 1021.78 1021.67 1021.64 1021.69 1021.80 1021.97 1022.20 1022.47 1022.79 1023.15 1023.53 1023.95 1024.37 1024.81 1025.24 1025.67 1026.07 1026.46 1026.82 1027.15
1030.47 1030.35 1030.17 1029.95 1029.70 1029.44 1029.17 1028.91 1028.65 1028.39 1028.12 1027.84 1027.53 1027.20 1026.83 1026.43 1026.01 1025.57 1025.13 1024.70 1024.29 1023.93 1023.62 1023.37 1023.19 1023.09 1023.05 1023.08 1023.18 1023.33 1023.53 1023.78 1024.06 1024.37 1024.70 1025.04 1025.39 1025.75 1026.09 1026.43 1026.75 1027.04 1027.31 1027.55
1030.96 1030.87 1030.73 1030.53 1030.31 1030.06 1029.81 1029.56 1029.31 1029.06 1028.81 1028.55 1028.28 1027.98 1027.66 1027.31 1026.94 1026.55 1026.16 1025.78 1025.42 1025.09 1024.80 1024.58 1024.41 1024.31 1024.28 1024.31 1024.40 1024.54 1024.72 1024.94 1025.19 1025.46 1025.74 1026.02 1026.31 1026.58 1026.84 1027.08 1027.31 1027.50 1027.67 1027.82
1031.40 1031.34 1031.21 1031.04 1030.83 1030.60 1030.35 1030.11 1029.86 1029.63 1029.39 1029.14 1028.89 1028.62 1028.33 1028.02 1027.69 1027.35 1027.00 1026.66 1026.33 1026.04 1025.79 1025.58 1025.43 1025.35 1025.32 1025.35 1025.43 1025.56 1025.73 1025.93 1026.15 1026.39 1026.62 1026.85 1027.06 1027.26 1027.44 1027.59 1027.71 1027.81 1027.88 1027.93
Thickness
5323 5332 5338 5341 5348 5357 5362 5367 5374 5385 5389 5387 5392 5396 5401 5407 5413 5418 5422 5427 5433 5438 5444 5451 5458 5464 5470 5476 5481 5486 5491 5495 5499 5503 5506 5508 5510 5512 5513 5514 5515 5516 5517 5517
5316 5330 5333 5331 5336 5343 5348 5353 5362 5368 5369 5372 5378 5382 5386 5391 5398 5402 5406 5412 5418 5424 5430 5437 5444 5451 5457 5462 5468 5472 5477 5481 5485 5489 5492 5495 5497 5498 5499 5501 5502 5503 5504 5505
5308 5323 5327 5317 5321 5327 5331 5335 5343 5345 5349 5357 5362 5367 5370 5376 5382 5386 5391 5397 5403 5409 5416 5422 5429 5437 5443 5449 5455 5459 5463 5467 5471 5475 5478 5481 5483 5485 5486 5487 5489 5490 5491 5492
5300 5306 5297 5303 5310 5315 5320 5321 5325 5331 5336 5341 5347 5354 5360 5364 5368 5372 5377 5384 5390 5397 5404 5410 5417 5425 5431 5437 5441 5446 5450 5454 5457 5461 5464 5467 5469 5471 5473 5474 5476 5477 5478 5479
5291 5290 5297 5298 5297 5299 5305 5310 5312 5318 5324 5329 5337 5348 5352 5354 5355 5359 5364 5371 5378 5386 5393 5400 5406 5413 5419 5424 5428 5432 5437 5440 5444 5447 5450 5453 5455 5457 5459 5461 5462 5464 5465 5465
5283 5283 5282 5274 5285 5296 5301 5299 5301 5306 5310 5315 5323 5328 5335 5341 5344 5349 5355 5361 5368 5375 5382 5389 5396 5402 5407 5411 5415 5419 5424 5427 5431 5434 5437 5439 5442 5444 5446 5448 5449 5450 5451 5452
5273 5273 5268 5265 5278 5290 5281 5278 5288 5293 5298 5303 5306 5310 5318 5327 5333 5339 5345 5351 5358 5365 5371 5377 5384 5390 5395 5399 5402 5407 5411 5415 5418 5421 5424 5426 5429 5431 5433 5434 5436 5437 5437 5438
5262 5258 5254 5260 5267 5264 5263 5273 5279 5283 5287 5292 5297 5304 5311 5317 5323 5329 5335 5341 5347 5354 5360 5366 5372 5378 5383 5387 5391 5395 5399 5402 5405 5407 5410 5413 5415 5417 5419 5421 5422 5422 5423 5424
5248 5247 5250 5253 5255 5257 5261 5264 5270 5274 5279 5283 5288 5294 5300 5306 5311 5318 5323 5329 5336 5342 5349 5355 5360 5366 5371 5375 5380 5384 5387 5389 5391 5394 5396 5399 5402 5404 5406 5407 5409 5410 5411 5412
5244 5245 5245 5248 5250 5252 5255 5257 5262 5266 5270 5274 5278 5283 5289 5294 5300 5306 5312 5318 5324 5331 5336 5342 5348 5354 5359 5364 5368 5372 5374 5376 5378 5381 5383 5385 5388 5391 5393 5394 5396 5397 5398 5399
5237 5238 5239 5242 5241 5243 5247 5250 5254 5258 5261 5265 5269 5274 5279 5283 5289 5294 5300 5306 5313 5318 5324 5329 5336 5341 5347 5351 5356 5359 5361 5364 5366 5368 5370 5372 5374 5377 5379 5382 5384 5386 5387 5388
5224 5227 5226 5229 5233 5236 5239 5241 5244 5248 5252 5256 5260 5265 5269 5274 5278 5283 5289 5295 5301 5307 5312 5318 5324 5329 5334 5339 5343 5346 5349 5352 5354 5357 5358 5360 5362 5363 5365 5369 5371 5373 5375 5376
5222 5225 5225 5227 5229 5230 5232 5234 5237 5240 5243 5248 5252 5256 5260 5264 5268 5273 5279 5284 5290 5296 5301 5307 5312 5317 5322 5327 5331 5335 5338 5341 5343 5346 5348 5349 5351 5353 5354 5355 5358 5360 5362 5364
5222 5222 5221 5222 5222 5225 5227 5229 5231 5234 5237 5240 5243 5247 5251 5255 5259 5264 5269 5274 5280 5286 5291 5296 5301 5305 5310 5315 5320 5323 5326 5329 5333 5335 5337 5339 5341 5343 5344 5345 5346 5347 5350 5352
5217 5216 5215 5216 5218 5220 5221 5223 5225 5227 5229 5232 5236 5239 5242 5246 5250 5254 5259 5265 5271 5276 5281 5286 5290 5294 5300 5304 5309 5313 5316 5318 5322 5324 5326 5328 5330 5332 5333 5334 5335 5337 5338 5340
5211 5211 5211 5211 5211 5213 5214 5215 5217 5219 5222 5225 5228 5231 5235 5239 5243 5247 5251 5256 5261 5266 5271 5276 5280 5285 5290 5294 5299 5302 5305 5308 5311 5313 5315 5317 5319 5322 5323 5324 5325 5326 5328 5330
5203 5203 5203 5203 5204 5206 5207 5209 5210 5212 5214 5217 5220 5224 5229 5232 5236 5240 5244 5248 5252 5257 5262 5266 5271 5276 5281 5285 5289 5293 5295 5298 5301 5303 5305 5307 5309 5311 5313 5315 5316 5317 5318 5320
5197 5196 5196 5196 5197 5199 5201 5203 5205 5206 5208 5211 5214 5218 5221 5225 5228 5231 5236 5241 5245 5250 5254 5258 5263 5268 5272 5276 5280 5283 5286 5289 5291 5293 5296 5298 5300 5302 5303 5304 5306 5307 5308 5310
5194 5193 5192 5193 5192 5193 5195 5196 5198 5200 5202 5205 5208 5210 5213 5217 5220 5224 5228 5233 5237 5242 5246 5250 5255 5259 5263 5266 5269 5273 5277 5280 5282 5284 5287 5289 5291 5292 5293 5294 5296 5297 5299 5301
5190 5189 5188 5188 5188 5188 5189 5190 5192 5194 5196 5198 5201 5204 5207 5210 5213 5217 5221 5225 5228 5232 5237 5242 5246 5250 5254 5257 5261 5264 5268 5271 5273 5275 5278 5280 5281 5282 5284 5285 5287 5288 5290 5291
5184 5183 5183 5182 5182 5183 5183 5184 5185 5186 5189 5191 5193 5196 5199 5203 5206 5209 5213 5217 5221 5225 5229 5234 5237 5241 5245 5249 5253 5256 5259 5261 5264 5266 5269 5271 5272 5274 5275 5276 5278 5279 5281 5282
5178 5177 5176 5176 5176 5177 5177 5178 5179 5180 5182 5184 5187 5189 5192 5195 5199 5202 5205 5208 5213 5217 5221 5224 5228 5232 5237 5241 5244 5247 5250 5253 5255 5257 5259 5261 5263 5265 5266 5268 5269 5270 5271 5272
5172 5171 5170 5170 5170 5170 5171 5172 5173 5174 5176 5178 5180 5182 5184 5187 5190 5194 5198 5202 5205 5209 5213 5216 5221 5225 5230 5232 5235 5238 5241 5243 5246 5249 5251 5253 5255 5257 5258 5260 5260 5261 5262 5262
5166 5165 5164 5164 5164 5164 5165 5166 5167 5169 5170 5172 5174 5176 5178 5181 5184 5187 5190 5194 5198 5202 5205 5209 5214 5218 5222 5224 5227 5229 5232 5235 5238 5240 5243 5245 5247 5249 5251 5252 5252 5253 5254 5254
5159 5158 5158 5157 5157 5158 5160 5160 5161 5162 5164 5167 5169 5171 5173 5175 5177 5181 5184 5187 5191 5195 5199 5202 5207 5210 5213 5216 5219 5221 5224 5227 5230 5232 5235 5237 5240 5242 5243 5244 5245 5245 5246 5247
5153 5153 5153 5152 5152 5153 5153 5154 5154 5156 5158 5160 5163 5165 5167 5170 5172 5175 5178 5181 5185 5189 5192 5196 5199 5202 5205 5208 5212 5214 5217 5220 5222 5225 5227 5230 5232 5234 5236 5237 5238 5239 5239 5240
5149 5148 5148 5148 5148 5148 5147 5147 5148 5149 5151 5153 5155 5159 5161 5164 5167 5170 5172 5175 5178 5182 5186 5189 5192 5196 5199 5202 5205 5208 5211 5213 5216 5219 5221 5223 5225 5228 5229 5231 5232 5233 5234 5234